Location: Sternwarte ZA, Rosenfeld-Brittheim
(48.2889°N, 8.6789°E)
Time: 07:18:29
(UTC+02:00)

Tiangong 2 - Visible Passes

Search period start: 27 June 2017 00:00
Search period end: 07 July 2017 00:00
Orbit: 391 x 396 km, 42.8° (Epoch: 26 June)

Date Brightness Start Highest point End Pass type
(mag) Time Alt. Az. Time Alt. Az. Time Alt. Az.
30 Jun 3.6 04:41:10 10° SSE 04:42:00 11° SSE 04:42:49 10° SE visible
02 Jul 3.1 04:23:20 11° SSW 04:25:16 16° SSE 04:27:23 10° ESE visible
03 Jul 3.5 03:29:02 12° SSE 03:29:02 12° SSE 03:30:06 10° SE visible
04 Jul 2.6 04:07:06 17° SSW 04:08:34 22° SSE 04:11:10 10° ESE visible
05 Jul 3.1 03:12:46 17° SE 03:12:46 17° SE 03:14:19 10° ESE visible
05 Jul 2.1 04:45:36 10° WSW 04:48:28 30° S 04:51:21 10° ESE visible
06 Jul 2.2 03:50:51 23° SSW 03:51:54 27° S 03:54:42 10° ESE visible
